Newton, KS

10:47 PM CDT on July 23, 2016 (GMT -0500)
Newton City County

Weather History for KEWK - October, 2012

Change the Weather History Date:

Saturday, October 20, 2012

  Actual Average Record
Temperature  
Mean Temperature 61 °F -  
Max Temperature 80 °F 63 °F 87 °F (2003)
Min Temperature 42 °F 43 °F 28 °F (2011)
Degree Days  
Heating Degree Days 4    
Growing Degree Days 11 (Base 50)    
Moisture  
Dew Point 37 °F    
Average Humidity 43    
Maximum Humidity 59    
Minimum Humidity 28    
Precipitation  
Precipitation 0.00 in - - ()
Sea Level Pressure  
Sea Level Pressure 29.77 in    
Wind  
Wind Speed 9 mph (South)    
Max Wind Speed 15 mph    
Max Gust Speed 21 mph    
Visibility 10 miles    
Events      
Averages and records for this station are not official NWS values.
T = Trace of Precipitation, MM = Missing Value Source: NWS Daily Summary

Daily Weather History Graph

Daily Weather History Graph

Search for Another Location

Airport or City:

Trip Planner

Search our weather history database for the weather conditions in past years. The results will help you decide how hot, cold, wet, or windy it might be!

Date:

Astronomy

Oct. 20, 2012 Rise Set
Actual Time 7:43 AM CDT 6:43 PM CDT
Civil Twilight 7:16 AM CDT 7:10 PM CDT
Nautical Twilight 6:45 AM CDT 7:41 PM CDT
Astronomical Twilight 6:15 AM CDT 8:11 PM CDT
Moon 1:17 PM CDT (10/20) 11:33 PM CDT (10/20)
Length of Visible Light 11h 54m
Length of Day
11h 00m
Waxing Crescent, 34% of the Moon is Illuminated
Oct 20
Waxing Crescent
Oct 21
First Quarter
Oct 29
Full
Nov 6
Last Quarter
Nov 13
New

Hourly Weather History & Observations

Time (CDT) Temp. Windchill Dew Point Humidity Pressure Visibility Wind Dir Wind Speed Gust Speed Precip Events Conditions
12:15 AM 46.4 °F 42.9 °F 26.6 °F 46% 29.85 in 10.0 mi SSE 6.9 mph - N/A   Clear
12:35 AM 44.6 °F 41.4 °F 28.4 °F 53% 29.85 in 10.0 mi SSE 5.8 mph - N/A   Clear
12:55 AM 46.4 °F 42.4 °F 28.4 °F 50% 29.85 in 10.0 mi South 8.1 mph - N/A   Clear
1:15 AM 46.4 °F 42.9 °F 28.4 °F 50% 29.85 in 10.0 mi SSE 6.9 mph - N/A   Clear
1:35 AM 48.2 °F - 28.4 °F 46% 29.85 in 10.0 mi South 6.9 mph - N/A   Clear
1:55 AM 48.2 °F - 28.4 °F 46% 29.84 in 10.0 mi South 8.1 mph - N/A   Clear
2:15 AM 48.2 °F - 28.4 °F 46% 29.84 in 10.0 mi South 9.2 mph - N/A   Clear
2:35 AM 48.2 °F - 26.6 °F 43% 29.83 in 10.0 mi SE 5.8 mph - N/A   Clear
2:55 AM 46.4 °F 41.5 °F 28.4 °F 50% 29.84 in 10.0 mi South 10.4 mph - N/A   Clear
3:15 AM 46.4 °F 41.9 °F 28.4 °F 50% 29.83 in 10.0 mi South 9.2 mph - N/A   Clear
3:35 AM 46.4 °F 42.9 °F 26.6 °F 46% 29.82 in 10.0 mi SSE 6.9 mph - N/A   Clear
3:55 AM 46.4 °F 41.9 °F 26.6 °F 46% 29.82 in 10.0 mi South 9.2 mph - N/A   Clear
4:15 AM 46.4 °F 41.9 °F 26.6 °F 46% 29.81 in 10.0 mi SSE 9.2 mph - N/A   Clear
4:35 AM 46.4 °F 42.4 °F 26.6 °F 46% 29.82 in 10.0 mi SSE 8.1 mph - N/A   Clear
4:55 AM 44.6 °F 40.2 °F 26.6 °F 49% 29.81 in 10.0 mi SE 8.1 mph - N/A   Clear
5:15 AM 44.6 °F 40.2 °F 26.6 °F 49% 29.81 in 10.0 mi SE 8.1 mph - N/A   Clear
5:35 AM 42.8 °F 37.5 °F 26.6 °F 53% 29.80 in 10.0 mi SE 9.2 mph - N/A   Clear
5:55 AM 42.8 °F 37.5 °F 26.6 °F 53% 29.80 in 10.0 mi SE 9.2 mph - N/A   Clear
6:15 AM 42.8 °F 38.0 °F 28.4 °F 57% 29.80 in 10.0 mi SE 8.1 mph - N/A   Clear
6:35 AM 42.8 °F 37.5 °F 28.4 °F 57% 29.79 in 10.0 mi SE 9.2 mph - N/A   Clear
6:55 AM 42.8 °F 37.5 °F 28.4 °F 57% 29.79 in 10.0 mi SE 9.2 mph - N/A   Clear
7:15 AM 44.6 °F 39.2 °F 28.4 °F 53% 29.78 in 10.0 mi SE 10.4 mph - N/A   Clear
7:35 AM 44.6 °F 38.8 °F 28.4 °F 53% 29.78 in 10.0 mi SE 11.5 mph - N/A   Clear
7:55 AM 44.6 °F 39.2 °F 28.4 °F 53% 29.79 in 10.0 mi SSE 10.4 mph - N/A   Clear
8:15 AM 44.6 °F 39.2 °F 28.4 °F 53% 29.79 in 10.0 mi SSE 10.4 mph - N/A   Clear
8:35 AM 46.4 °F 41.1 °F 28.4 °F 50% 29.79 in 10.0 mi SSE 11.5 mph - N/A   Clear
8:55 AM 48.2 °F - 28.4 °F 46% 29.79 in 10.0 mi SSE 8.1 mph - N/A   Clear
9:15 AM 51.8 °F - 30.2 °F 44% 29.80 in 10.0 mi South 10.4 mph - N/A   Clear
9:35 AM 53.6 °F - 32.0 °F 44% 29.80 in 10.0 mi South 12.7 mph - N/A   Clear
9:55 AM 55.4 °F - 33.8 °F 44% 29.80 in 10.0 mi South 10.4 mph - N/A   Clear
10:15 AM 57.2 °F - 35.6 °F 44% 29.80 in 10.0 mi South 11.5 mph - N/A   Clear
10:35 AM 60.8 °F - 35.6 °F 39% 29.80 in 10.0 mi South 11.5 mph - N/A   Clear
10:55 AM 64.4 °F - 35.6 °F 34% 29.80 in 10.0 mi South 12.7 mph - N/A   Clear
11:15 AM 64.4 °F - 37.4 °F 37% 29.80 in 10.0 mi South 11.5 mph - N/A   Clear
11:35 AM 66.2 °F - 37.4 °F 35% 29.79 in 10.0 mi South 10.4 mph - N/A   Clear
11:55 AM 69.8 °F - 39.2 °F 33% 29.79 in 10.0 mi SSW 9.2 mph - N/A   Clear
12:15 PM 69.8 °F - 39.2 °F 33% 29.79 in 10.0 mi SSW 10.4 mph - N/A   Clear
12:35 PM 71.6 °F - 39.2 °F 31% 29.78 in 10.0 mi SSW 11.5 mph - N/A   Clear
12:55 PM 71.6 °F - 41.0 °F 33% 29.77 in 10.0 mi SSW 12.7 mph - N/A   Clear
1:15 PM 73.4 °F - 41.0 °F 31% 29.76 in 10.0 mi SSW 11.5 mph - N/A   Clear
1:35 PM 73.4 °F - 42.8 °F 33% 29.75 in 10.0 mi SSW 12.7 mph 18.4 mph N/A   Clear
1:55 PM 75.2 °F - 42.8 °F 31% 29.74 in 10.0 mi SSW 11.5 mph - N/A   Clear
2:15 PM 77.0 °F - 42.8 °F 29% 29.73 in 10.0 mi SSW 15.0 mph - N/A   Clear
2:35 PM 78.8 °F - 44.6 °F 30% 29.72 in 10.0 mi SW 13.8 mph - N/A   Clear
2:55 PM 78.8 °F - 42.8 °F 28% 29.71 in 10.0 mi SSW 15.0 mph 19.6 mph N/A   Clear
3:15 PM 78.8 °F - 44.6 °F 30% 29.71 in 10.0 mi SSW 12.7 mph 20.7 mph N/A   Clear
3:35 PM 80.6 °F - 44.6 °F 28% 29.71 in 10.0 mi SSW 10.4 mph 17.3 mph N/A   Clear
3:55 PM 80.6 °F - 44.6 °F 28% 29.71 in 10.0 mi SSW 9.2 mph 19.6 mph N/A   Clear
4:15 PM 80.6 °F - 44.6 °F 28% 29.70 in 10.0 mi SSW 10.4 mph 16.1 mph N/A   Clear
4:35 PM 80.6 °F - 44.6 °F 28% 29.69 in 10.0 mi SW 11.5 mph - N/A   Clear
4:55 PM 80.6 °F - 44.6 °F 28% 29.69 in 10.0 mi SSW 12.7 mph - N/A   Clear
5:15 PM 80.6 °F - 44.6 °F 28% 29.69 in 10.0 mi South 15.0 mph - N/A   Clear
5:35 PM 78.8 °F - 44.6 °F 30% 29.69 in 10.0 mi SSW 15.0 mph - N/A   Clear
5:55 PM 77.0 °F - 44.6 °F 32% 29.69 in 10.0 mi South 15.0 mph 18.4 mph N/A   Clear
6:15 PM 75.2 °F - 42.8 °F 31% 29.69 in 10.0 mi SSW 12.7 mph - N/A   Clear
6:35 PM 71.6 °F - 42.8 °F 35% 29.70 in 10.0 mi South 8.1 mph - N/A   Clear
6:55 PM 69.8 °F - 42.8 °F 38% 29.70 in 10.0 mi South 5.8 mph - N/A   Clear
7:15 PM 69.8 °F - 42.8 °F 38% 29.71 in 10.0 mi SSE 4.6 mph - N/A   Clear
7:35 PM 68.0 °F - 42.8 °F 40% 29.71 in 10.0 mi SE 6.9 mph - N/A   Clear
7:55 PM 66.2 °F - 42.8 °F 43% 29.72 in 10.0 mi SSE 8.1 mph - N/A   Clear
8:15 PM 66.2 °F - 42.8 °F 43% 29.73 in 10.0 mi SE 6.9 mph - N/A   Clear
8:35 PM 64.4 °F - 42.8 °F 45% 29.73 in 10.0 mi SE 6.9 mph - N/A   Clear
8:55 PM 62.6 °F - 42.8 °F 48% 29.73 in 10.0 mi SE 9.2 mph - N/A   Clear
9:15 PM 64.4 °F - 44.6 °F 49% 29.73 in 10.0 mi SSE 9.2 mph - N/A   Clear
9:35 PM 64.4 °F - 44.6 °F 49% 29.73 in 10.0 mi SSE 9.2 mph - N/A   Clear
9:55 PM 64.4 °F - 44.6 °F 49% 29.74 in 10.0 mi SSE 10.4 mph - N/A   Clear
10:15 PM 64.4 °F - 44.6 °F 49% 29.75 in 10.0 mi South 10.4 mph - N/A   Clear
10:35 PM 64.4 °F - 44.6 °F 49% 29.75 in 10.0 mi South 9.2 mph - N/A   Clear
10:55 PM 62.6 °F - 44.6 °F 52% 29.75 in 10.0 mi SSE 8.1 mph - N/A   Clear
11:15 PM 60.8 °F - 44.6 °F 55% 29.75 in 10.0 mi SSE 5.8 mph - N/A   Clear
11:35 PM 60.8 °F - 44.6 °F 55% 29.75 in 10.0 mi SSE 6.9 mph - N/A   Clear
11:55 PM 59.0 °F - 44.6 °F 59% 29.75 in 10.0 mi SSE 8.1 mph - N/A   Clear